Lapse_Rate
6.9 6.9 6.8 6.7 6.5 6.4 6.5 6.4 6.5 6.4 6.4 6.6 6.8 6.7 6.8 6.9 6.8 6.6 7.1 6.2 6.1 6.5 7.0 6.6 6.6 6.7 6.8 7.1 7.3 7.4 7.4 7.3 7.4 7.0 7.4 7.4 7.3 7.8 7.7 7.6 7.2 7.1 7.0 6.7 6.8 6.7 6.3 8.0 7.6 7.8 7.4 6.7 6.9 6.7
6.9 6.8 6.8 6.6 6.6 6.6 6.6 6.5 6.5 6.6 6.8 6.9 7.0 7.0 6.8 6.6 6.5 6.5 6.5 6.4 6.1 6.1 7.0 7.1 7.1 7.0 7.0 7.3 7.1 7.1 7.4 7.4 7.2 7.2 7.3 7.0 7.4 7.6 7.7 7.2 7.1 6.8 7.3 7.4 7.6 7.7 7.7 7.5 7.3 7.4 7.1 6.8 6.9 6.8
6.8 6.8 6.7 6.7 6.6 6.8 6.8 6.8 6.9 7.1 7.1 7.0 6.9 7.1 7.0 6.9 6.5 6.2 6.2 6.4 6.1 5.9 6.6 6.9 7.6 7.2 7.1 7.0 7.0 6.9 7.1 7.3 7.3 7.2 7.1 7.0 7.3 7.4 7.4 7.7 7.2 7.0 7.0 7.2 7.4 7.2 7.2 7.0 6.6 6.8 6.6 6.5 6.6 6.0
6.9 6.8 6.7 6.6 6.9 6.9 7.0 7.2 7.3 7.2 7.0 7.0 6.9 6.8 6.8 6.8 6.6 6.3 6.3 6.2 6.2 6.2 6.3 7.7 7.4 7.2 7.3 6.9 7.0 7.1 7.0 6.9 7.1 7.1 6.9 6.9 7.2 7.1 6.9 7.1 7.2 7.1 7.1 7.1 7.0 7.1 7.0 7.0 6.8 6.4 6.2 6.2 6.1 6.6
6.8 6.7 6.6 6.8 6.9 7.1 7.1 7.2 7.2 7.1 7.0 6.9 6.7 6.6 6.6 6.8 6.6 6.4 6.3 6.1 6.1 6.2 6.8 7.0 7.4 7.4 7.2 6.9 7.0 7.4 7.3 7.0 6.9 7.1 6.9 7.0 7.4 7.1 7.2 7.0 6.9 6.9 7.1 7.1 6.8 6.7 6.8 6.6 6.5 6.7 6.5 6.3 6.8 6.8
6.8 6.7 6.9 7.0 7.1 7.1 7.2 7.2 7.2 7.2 7.1 6.9 6.8 6.7 6.5 6.7 6.5 6.2 6.0 6.2 6.4 6.4 6.6 6.8 7.5 7.3 7.6 7.1 7.1 7.0 7.1 7.3 7.2 6.9 7.0 7.4 7.2 7.2 7.3 7.3 7.0 6.9 7.0 7.0 6.8 6.8 6.5 6.3 6.1 6.2 6.7 6.8 7.1 7.0
6.8 7.1 7.2 7.2 7.2 7.1 7.2 7.2 7.1 7.1 7.1 7.0 6.9 6.7 6.7 6.7 6.4 6.4 6.3 7.1 6.7 6.5 6.5 6.6 7.1 7.3 7.1 7.1 7.2 6.9 7.1 7.0 6.8 6.6 7.1 7.2 7.2 6.9 7.0 7.0 7.2 7.0 6.9 6.9 6.6 6.7 6.5 6.4 6.7 6.7 6.8 7.0 7.0 7.0
7.2 7.3 7.3 7.1 7.2 7.2 7.3 7.3 7.4 7.4 7.5 7.2 7.1 6.9 6.9 7.0 6.7 6.5 6.5 6.8 6.9 6.7 6.5 6.4 7.2 7.5 7.0 7.0 6.9 6.9 6.9 7.0 7.0 7.0 7.1 7.0 6.9 6.7 6.7 7.0 7.2 7.0 7.0 7.0 6.7 6.9 6.9 6.8 7.0 6.9 6.7 6.7 6.8 6.9
7.4 7.4 7.3 7.2 7.2 7.5 7.6 7.6 7.6 7.6 7.5 7.3 7.3 7.4 7.3 6.9 7.0 7.2 6.7 6.8 6.9 6.8 6.5 6.9 7.3 7.6 7.4 6.9 6.9 6.9 6.9 6.8 6.8 6.9 7.0 6.9 6.9 6.8 6.8 7.1 7.1 6.9 6.9 7.0 6.9 7.1 7.0 6.7 6.6 6.7 6.6 6.5 6.5 6.7
7.6 7.5 7.0 7.1 7.4 7.6 7.4 7.8 7.6 7.6 7.5 7.4 7.5 7.5 7.3 7.1 7.5 7.2 7.2 7.1 7.1 6.9 7.2 7.4 7.1 7.1 7.1 6.7 6.6 6.8 6.9 6.9 6.8 7.0 6.9 6.9 6.9 7.0 7.0 7.1 7.1 7.1 7.2 7.1 6.8 6.9 6.8 6.9 7.0 7.0 6.9 6.9 6.8 6.7
7.5 7.4 7.5 7.3 7.3 7.5 7.6 7.7 7.5 7.5 7.5 7.5 7.5 7.3 7.6 7.5 7.5 7.3 7.2 7.1 7.0 6.9 7.3 7.3 7.3 7.3 7.2 6.9 6.9 6.8 7.0 6.8 6.6 7.0 6.8 6.4 6.5 6.8 6.9 6.9 6.9 6.9 7.3 7.2 7.1 6.9 6.8 6.8 6.9 7.0 6.9 6.9 6.8 6.8
7.5 7.4 7.4 7.4 7.4 7.5 7.4 7.4 7.5 7.4 7.3 7.5 7.8 7.7 7.5 7.4 7.3 7.6 7.5 7.2 7.1 7.2 7.4 7.5 7.2 7.0 6.8 6.9 6.9 7.0 7.0 7.0 6.6 6.8 6.7 6.0 6.2 6.9 6.9 6.7 6.8 7.1 7.0 7.0 7.1 7.1 7.0 7.0 6.9 6.8 6.7 6.6 6.5 6.3
7.3 7.4 7.5 7.6 7.3 7.5 7.4 7.4 7.4 7.6 7.4 7.4 7.4 7.4 7.5 7.6 7.7 7.8 7.3 7.2 7.0 7.3 7.5 7.6 7.0 7.1 7.0 7.0 7.1 7.0 7.0 7.0 7.0 6.8 6.6 6.4 6.7 6.6 6.6 6.6 6.7 6.9 6.9 6.8 6.6 6.7 6.6 6.5 6.3 6.3 6.3 6.2 6.1 6.0
7.5 7.6 7.5 7.5 7.3 7.4 7.4 7.4 7.4 7.4 7.4 7.4 7.4 7.6 7.7 7.7 7.6 7.3 7.5 7.9 7.9 7.6 7.7 7.3 6.9 6.8 6.9 7.0 6.9 6.7 6.9 6.8 6.4 6.6 6.3 6.9 6.7 6.4 6.3 6.2 6.2 6.0 6.0 6.1 6.1 6.0 5.8 5.7 5.5 5.5 5.4 5.2 5.1 5.1
7.5 7.7 7.6 7.4 7.3 7.4 7.4 7.4 7.4 7.3 7.4 7.7 8.0 7.9 7.5 7.5 7.7 7.8 7.7 7.8 7.7 7.4 7.3 6.8 6.7 6.9 6.9 7.0 7.1 7.1 6.8 6.4 6.3 6.1 6.3 6.0 5.8 5.6 5.5 5.3 5.3 5.2 5.1 5.0 5.0 5.0 5.0 4.9 4.8 4.7 4.6 4.5 4.5 4.5
7.6 7.8 7.6 7.3 7.4 7.5 7.3 7.1 7.2 7.4 7.7 7.9 7.8 7.4 7.1 7.1 7.3 7.7 7.5 7.3 6.7 6.4 6.3 6.4 6.5 6.6 6.8 7.0 7.0 6.6 6.5 6.5 6.1 6.1 5.5 5.2 5.0 4.9 4.7 4.5 4.3 4.2 4.1 4.1 4.2 4.2 4.1 4.1 4.1 4.1 4.1 4.2 4.2 4.2
7.7 7.7 7.6 7.5 7.4 7.4 7.5 7.4 7.4 7.5 7.6 7.4 6.7 7.1 7.2 6.9 7.2 7.0 7.1 6.8 6.7 6.6 6.5 6.6 7.0 6.8 6.7 6.7 6.7 6.5 6.4 6.2 5.8 5.5 5.2 5.1 5.0 4.7 4.5 4.4 4.3 4.3 4.4 4.3 4.2 4.2 4.2 4.2 4.2 4.2 4.2 4.2 4.2 4.3
7.4 7.6 7.5 7.5 7.6 7.5 7.3 7.5 7.5 7.4 7.4 6.9 6.2 6.3 6.5 6.8 6.8 6.8 6.6 6.7 6.8 6.9 7.1 7.1 7.1 6.9 6.7 6.5 6.4 6.4 6.2 5.8 5.5 5.4 5.3 5.0 4.8 4.7 4.7 4.7 4.7 4.6 4.5 4.5 4.5 4.5 4.5 4.5 4.5 4.5 4.6 4.6 4.6 4.7
7.2 7.1 7.2 7.3 7.3 7.3 7.4 7.4 7.4 7.3 6.6 6.6 6.6 6.4 6.3 6.5 6.5 6.6 6.5 6.5 6.6 6.7 6.7 6.7 6.8 6.8 6.7 6.4 6.1 5.9 5.8 5.7 5.4 5.3 5.2 5.0 4.8 4.7 4.6 4.6 4.5 4.5 4.5 4.4 4.3 4.3 4.3 4.4 4.4 4.4 4.5 4.8 5.1 5.2
7.1 7.1 7.1 7.2 7.3 7.3 7.5 7.5 7.4 7.3 6.5 6.7 6.7 6.5 6.5 6.5 6.4 6.4 6.5 6.6 6.7 6.7 6.6 6.6 6.8 6.6 6.3 5.9 5.7 5.6 5.6 5.5 5.3 5.0 4.8 4.7 4.6 4.7 4.7 4.6 4.6 4.5 4.5 4.5 4.6 4.6 4.7 4.7 4.7 4.8 4.9 4.9 5.1 5.1
7.0 7.0 7.1 7.1 7.1 7.2 7.5 7.4 7.3 6.7 6.4 6.3 6.1 6.3 6.4 6.4 6.4 6.5 6.5 6.6 6.5 6.5 6.4 6.4 6.1 5.7 5.5 5.5 5.4 5.2 5.1 5.3 5.2 5.0 4.8 4.9 4.8 4.7 4.7 4.6 4.5 4.4 4.4 4.4 4.4 4.5 4.7 4.9 5.1 5.3 5.2 5.2 5.3 5.3
6.9 6.8 6.9 7.0 6.9 7.1 7.2 7.2 7.1 6.7 6.3 6.2 6.2 6.4 6.5 6.5 6.5 6.4 6.4 6.4 6.4 6.3 6.0 5.9 5.7 5.5 5.4 5.4 5.3 5.2 5.1 5.1 5.0 5.0 5.0 4.9 4.8 4.6 4.5 4.4 4.3 4.2 4.2 4.3 4.6 5.1 5.1 5.2 5.5 5.7 5.8 5.9 5.9 5.8
6.5 6.5 6.4 6.5 6.7 6.8 6.5 6.7 6.5 6.3 5.8 5.9 6.0 6.1 6.2 6.2 6.3 6.3 6.3 6.2 6.0 5.9 5.7 5.6 5.4 5.5 5.5 5.3 5.4 5.4 5.2 5.0 5.0 4.9 4.8 4.7 4.4 4.4 4.3 4.2 4.2 4.4 4.8 4.8 5.3 5.4 5.5 5.7 5.9 6.0 5.9 5.9 5.8 5.9
5.9 6.0 6.0 6.1 6.3 6.5 6.3 6.2 6.2 6.0 5.7 5.6 5.7 6.0 5.9 6.2 6.1 6.3 6.4 6.2 6.0 5.9 5.7 5.7 5.8 5.7 5.7 5.6 5.5 5.4 5.4 5.3 5.0 4.9 4.7 4.6 4.4 4.4 4.4 4.6 4.7 5.1 5.4 5.7 5.7 5.8 5.8 5.9 5.9 5.7 5.7 5.7 5.8 5.7
5.4 5.6 5.5 5.8 6.0 6.0 5.8 5.8 5.9 6.1 5.8 5.9 6.1 5.9 5.8 6.0 6.2 6.0 6.1 6.2 6.2 6.0 6.0 6.1 6.2 6.1 5.9 5.7 5.6 5.4 5.3 5.2 5.1 4.7 4.5 4.4 4.4 4.5 4.8 5.0 5.3 5.3 5.6 5.8 5.8 5.7 5.7 5.8 5.7 5.6 5.5 5.5 5.5 5.6
5.3 5.2 5.2 5.2 5.1 5.3 5.4 5.5 5.9 6.1 6.0 6.0 6.0 6.0 6.2 6.6 6.7 6.5 6.4 6.4 6.4 6.4 6.4 6.4 6.3 6.1 5.9 5.6 5.4 5.3 5.1 5.0 4.7 4.4 4.4 4.4 4.4 4.7 5.0 5.4 5.7 5.7 5.6 5.7 5.7 5.8 5.7 5.7 5.6 5.6 5.6 5.5 5.5 5.5
5.1 5.0 5.0 5.1 5.4 5.6 5.7 5.8 6.0 5.9 6.1 6.4 6.4 6.3 6.7 7.0 7.0 7.1 6.8 6.7 6.6 6.5 6.5 6.3 6.2 5.8 5.7 5.5 5.4 5.2 5.0 4.8 4.6 4.6 4.6 4.7 5.0 5.3 5.5 5.6 5.6 5.7 5.8 5.8 5.8 5.8 5.8 5.8 5.7 5.7 5.7 5.7 5.6 5.5
5.0 5.0 5.0 5.1 5.4 5.7 6.2 6.0 5.9 6.2 6.8 6.9 6.9 7.2 7.4 7.5 7.6 7.2 7.0 6.7 6.7 6.5 6.3 6.2 6.1 5.8 5.6 5.4 5.2 5.0 4.8 4.7 4.6 4.7 5.0 5.1 5.3 5.7 5.7 5.8 5.8 5.9 5.9 6.0 6.0 5.9 5.9 5.9 5.8 5.8 5.7 5.7 5.6 5.6
5.2 5.2 5.2 5.5 5.7 6.0 6.2 6.4 6.7 7.2 7.5 7.5 7.4 7.5 7.5 7.5 7.2 6.9 6.8 6.7 6.6 6.4 6.3 6.1 6.0 5.7 5.5 5.3 5.0 4.9 4.8 4.7 4.8 5.1 5.5 5.9 6.1 6.0 6.1 6.0 5.9 6.0 5.9 5.9 6.0 6.0 6.0 6.0 5.9 5.9 5.8 5.8 5.7 5.6
5.5 5.7 5.6 5.7 5.9 6.1 6.6 7.3 7.5 7.6 7.4 7.3 7.4 7.5 7.5 7.2 7.1 6.8 6.6 6.5 6.4 6.3 6.2 6.1 5.9 5.6 5.4 5.2 4.9 4.8 4.8 4.8 5.0 5.3 5.7 6.0 6.1 6.1 6.1 6.1 6.0 5.9 5.9 5.9 5.9 5.9 5.9 5.9 5.9 5.8 5.8 5.7 5.6 5.6
6.0 6.1 6.1 6.3 6.5 6.9 7.2 7.3 7.4 7.3 7.3 7.4 7.3 7.0 7.1 6.9 6.6 6.5 6.3 6.3 6.3 6.3 6.2 6.0 5.8 5.6 5.4 5.1 5.0 4.7 4.8 4.9 5.2 5.6 5.9 6.1 6.1 6.1 6.1 6.1 6.1 6.1 6.1 6.0 6.0 5.9 5.9 5.9 5.8 5.8 5.8 5.7 5.7 5.7
6.5 6.6 6.6 6.9 7.1 7.2 7.4 7.0 7.0 7.1 7.0 6.8 6.9 6.6 6.5 6.5 6.6 6.4 6.3 6.3 6.3 6.2 6.1 5.9 5.6 5.4 5.2 5.0 4.9 4.9 5.0 5.2 5.5 5.9 6.1 6.1 6.1 6.1 6.2 6.2 6.2 6.1 6.1 6.0 5.9 5.9 5.8 5.8 5.7 5.7 5.6 5.5 5.5 5.5
6.3 6.4 6.4 6.6 6.8 6.8 6.9 6.9 6.6 6.6 6.6 6.6 6.6 6.5 6.3 6.3 6.4 6.3 6.3 6.3 6.2 6.1 6.0 5.7 5.4 5.2 5.1 4.9 4.9 5.0 5.1 5.4 5.7 6.0 6.1 6.1 6.1 6.2 6.2 6.2 6.1 6.0 5.9 5.8 5.7 5.6 5.6 5.5 5.5 5.5 5.5 5.5 5.5 5.5
Wind_Speed
27 23 22 24 25 27 28 28 26 25 24 23 21 20 18 17 25 15 8 7 9 3 7 7 9 8 6 3 2 5 3 1 1 1 2 4 2 4 3 2 8 7 7 5 4 4 7 7 3 3 3 8 12 14
24 23 24 26 28 30 29 27 26 25 26 23 22 22 22 19 23 29 5 11 7 4 3 2 8 8 8 10 5 1 3 3 1 2 1 3 2 3 3 3 8 3 4 4 7 6 3 10 12 10 9 11 13 13
24 26 26 28 30 30 28 28 27 26 24 22 22 20 19 20 21 21 4 9 4 1 3 5 11 14 10 10 7 4 2 6 1 1 2 3 4 3 3 4 2 4 5 2 2 11 13 15 15 16 12 15 14 11
26 27 28 31 30 32 31 30 27 24 21 20 18 17 16 20 18 20 5 6 5 2 2 5 8 7 13 14 7 5 5 5 4 2 1 2 2 2 2 5 3 4 3 3 3 10 14 11 12 10 13 15 11 12
26 28 29 30 33 32 22 21 21 21 19 17 17 16 19 24 26 17 5 5 6 6 3 3 8 13 10 11 11 9 6 4 2 1 1 2 2 3 3 5 3 6 5 3 4 10 9 6 10 11 13 11 13 12
27 28 30 31 25 20 18 18 19 19 18 17 17 17 19 27 29 5 2 5 10 2 2 3 4 5 5 12 9 7 5 3 3 1 2 2 4 3 2 2 6 13 12 14 3 6 13 13 11 11 9 12 14 14
26 29 29 24 20 18 18 19 19 20 20 18 17 15 24 28 11 3 3 3 23 9 2 3 4 4 7 7 3 3 4 3 2 2 2 3 3 2 2 2 8 12 10 12 11 9 8 10 7 11 12 15 16 15
27 28 24 21 20 20 18 18 19 20 22 19 17 19 24 28 11 2 2 15 21 4 3 3 3 2 3 2 2 2 3 2 2 2 1 3 3 2 3 6 8 12 11 14 14 10 10 12 12 11 10 10 13 11
26 22 21 21 19 20 18 17 17 19 24 22 21 21 6 2 3 3 12 27 7 3 3 3 2 2 3 1 3 2 2 2 3 3 3 3 2 3 3 6 10 11 9 9 9 12 11 10 11 10 10 11 12 10
18 18 20 17 16 9 8 7 13 21 26 27 9 3 3 4 29 14 2 5 2 1 2 3 2 1 2 2 2 3 3 2 3 4 1 3 3 7 9 9 9 9 9 10 6 11 10 9 10 11 10 9 10 10
15 10 10 7 4 8 12 19 25 30 19 3 3 2 6 14 3 2 3 3 3 3 3 3 3 2 2 2 3 2 2 3 2 3 5 2 2 3 8 10 9 8 9 10 10 9 9 9 9 10 11 12 11 11
7 12 11 12 16 23 27 21 13 4 2 7 8 6 3 2 2 4 4 3 4 5 1 4 3 1 2 2 3 2 3 2 3 3 2 2 3 6 8 9 10 9 9 10 11 11 10 12 10 10 10 10 10 10
13 14 15 17 16 13 16 16 15 25 10 4 4 3 2 2 4 5 5 2 3 2 1 2 3 2 1 2 1 2 3 1 2 2 3 3 5 5 6 6 8 8 10 10 10 9 11 12 11 11 10 9 9 9
17 18 17 19 21 17 14 13 4 5 2 3 3 5 4 3 3 2 3 3 2 1 1 4 3 2 1 2 1 1 1 1 2 3 3 2 3 5 5 6 6 6 6 7 7 7 9 9 9 9 8 6 8 8
16 14 15 12 12 7 4 10 10 4 3 4 4 4 3 1 0 1 1 2 2 1 1 3 3 3 2 3 2 2 2 3 3 2 2 2 3 4 3 4 4 4 4 5 4 5 6 7 8 8 7 7 7 7
15 12 3 4 7 2 1 7 4 2 3 3 6 3 1 3 4 4 4 2 3 3 2 1 3 3 3 2 3 4 2 2 1 3 3 3 4 4 4 4 4 4 5 5 6 6 6 6 7 7 7 7 7 8
7 3 6 10 12 12 8 4 4 5 4 4 3 3 3 4 5 3 4 3 2 1 2 3 4 3 1 3 3 3 2 3 4 4 4 5 4 3 4 4 4 5 5 5 6 6 6 7 6 6 7 6 6 6
3 4 7 2 3 4 2 3 3 4 6 4 3 3 4 4 2 3 3 4 3 2 2 2 3 5 3 3 2 2 3 5 5 4 4 4 4 4 3 4 4 4 4 3 3 3 4 5 5 3 5 5 5 6
7 5 5 4 4 4 3 4 4 4 3 2 2 2 2 2 2 2 3 4 5 4 3 3 5 3 2 2 5 5 3 3 5 3 4 3 5 4 4 5 5 4 4 4 4 3 3 5 5 2 1 3 4 4
12 9 3 1 1 3 4 3 3 4 3 2 2 2 2 2 0 3 6 5 5 3 5 4 3 3 3 5 4 4 3 5 5 5 4 2 2 3 3 3 3 4 3 3 3 1 2 3 3 3 5 6 5 4
4 1 2 1 3 5 4 3 3 3 4 3 3 2 3 2 3 3 3 4 4 3 3 3 4 6 8 7 6 5 7 5 2 3 3 3 2 3 2 2 2 2 2 2 2 3 5 3 3 4 4 3 2 2
1 3 2 5 4 4 4 4 4 3 3 3 3 2 3 2 2 3 2 5 3 4 2 3 3 5 6 6 4 4 5 6 6 5 5 4 2 3 3 2 2 2 3 2 3 4 3 2 3 2 3 3 3 2
3 3 3 3 5 4 0 1 3 2 3 3 2 3 2 2 1 3 3 3 2 2 4 5 6 7 6 6 6 6 6 6 4 3 3 3 2 3 4 4 5 4 3 3 4 3 2 2 3 3 1 1 2 0
7 3 3 3 4 3 2 1 2 3 3 2 2 3 2 2 2 3 3 2 1 2 3 5 3 3 3 7 4 3 2 4 4 4 3 4 4 2 3 3 3 2 2 2 3 3 3 1 1 2 2 2 2 1
5 6 4 3 2 4 3 2 2 3 3 2 3 2 1 0 3 3 2 3 2 2 2 2 3 4 5 3 2 2 6 3 5 4 4 4 2 2 2 3 3 3 3 4 2 3 1 2 4 3 3 4 3 4
5 3 4 2 1 4 3 4 3 3 3 3 2 2 1 2 3 3 2 4 4 3 2 2 3 6 5 4 4 4 3 4 3 5 3 4 4 2 2 2 4 2 3 3 3 2 1 2 3 2 2 1 1 0
4 2 2 3 2 3 3 3 4 4 3 3 3 3 3 4 3 1 3 2 4 3 3 3 4 7 6 6 6 5 3 4 4 4 3 4 4 4 4 3 3 1 3 5 4 4 3 3 0 1 1 2 1 3
2 4 4 3 4 5 3 3 3 3 2 2 3 3 3 3 2 2 2 4 7 8 7 7 7 6 6 6 4 3 2 2 3 4 4 3 2 3 3 2 2 4 2 2 2 3 4 3 3 3 4 2 2 2
3 2 4 5 5 5 5 4 2 2 3 1 3 3 2 2 3 6 5 5 5 6 5 5 3 3 4 5 5 4 3 3 3 2 1 3 2 2 1 2 2 2 2 1 1 2 2 1 1 1 2 2 3 3
1 2 4 4 5 4 3 3 2 2 3 3 4 9 8 5 5 2 3 4 5 4 3 3 3 3 3 4 3 4 4 3 3 3 3 2 2 1 3 3 3 2 3 3 3 3 4 4 4 3 1 2 2 1
2 3 4 4 3 1 7 7 8 8 7 7 5 6 4 3 3 5 5 3 3 4 4 3 3 3 4 3 2 4 1 3 2 4 4 3 4 3 2 2 2 3 3 3 3 2 2 3 3 3 4 4 5 3
3 3 4 4 2 1 2 2 2 4 3 3 2 2 1 3 3 1 2 3 1 3 3 5 5 3 3 3 2 4 6 3 3 3 6 4 3 3 5 3 2 3 3 3 3 2 1 0 2 3 3 4 4 5
5 6 6 4 3 3 3 3 3 3 2 2 2 2 3 3 3 2 1 2 1 6 6 5 4 4 6 6 5 4 5 6 10 10 9 8 8 8 9 8 9 4 4 4 4 3 3 3 2 3 4 4 5 4
Wind_Direction
282 281 281 283 281 280 282 281 279 276 274 271 268 258 252 242 211 194 211 199 199 224 261 277 282 288 290 288 323 337 14 37 263 130 174 234 222 254 223 175 289 194 184 188 184 210 246 323 339 109 136 53 66 59
279 282 284 280 278 280 279 276 274 270 271 266 267 256 249 234 213 192 204 203 199 220 246 341 269 257 248 260 287 359 331 339 263 243 289 336 319 304 344 277 193 241 176 177 171 204 96 23 63 99 97 84 57 60
284 284 281 279 281 279 275 272 270 268 264 266 264 242 235 227 207 196 161 168 155 136 302 255 255 272 251 243 189 167 253 353 147 79 62 316 280 3 295 281 95 209 352 246 37 44 61 55 26 67 68 75 83 84
283 282 281 283 283 279 273 266 263 261 260 260 258 225 216 195 192 166 157 156 154 127 203 278 226 228 234 253 245 175 166 160 244 91 100 246 273 263 325 308 304 2 88 133 340 98 93 64 54 44 62 51 58 69
281 282 286 286 283 279 265 253 251 250 250 243 240 224 197 183 177 169 156 178 177 173 213 268 301 259 239 207 208 205 180 180 168 152 177 243 242 272 218 217 45 22 357 354 55 341 99 92 57 64 57 42 54 70
282 286 284 284 286 274 263 254 242 234 227 228 234 219 195 178 173 149 149 198 204 177 338 306 292 268 195 192 191 207 187 157 102 189 227 261 257 283 294 51 17 15 43 49 29 359 86 88 56 37 59 77 68 63
286 284 284 284 279 267 257 250 243 233 223 219 214 205 178 170 168 159 178 167 173 162 202 254 264 275 167 164 153 151 153 120 124 182 220 253 276 88 353 41 29 22 33 35 15 131 57 51 66 40 27 92 85 79
286 285 282 280 274 263 252 251 254 234 209 202 194 182 168 161 118 165 295 151 156 131 216 245 258 317 65 137 106 49 78 93 171 212 229 243 283 134 86 40 34 15 3 23 4 60 70 78 66 53 37 73 76 75
287 282 282 276 276 278 264 248 244 227 183 176 166 145 101 104 143 144 129 147 162 160 194 210 226 164 94 114 110 85 114 148 174 211 219 191 38 54 42 44 38 26 15 0 355 34 38 77 84 73 72 76 85 82
291 293 288 279 268 269 262 234 158 155 149 135 110 88 128 168 119 89 64 159 166 244 253 236 149 333 137 142 148 142 167 182 193 217 192 65 80 65 57 50 39 25 26 20 21 22 21 47 76 76 72 73 84 84
314 349 338 317 233 146 116 115 126 121 114 66 144 113 110 105 79 146 145 174 150 207 214 217 123 177 16 158 122 170 157 156 211 215 161 114 83 66 60 55 39 29 44 43 58 51 43 57 79 85 80 77 79 80
48 33 30 94 114 115 116 110 94 81 107 118 103 81 74 105 142 169 166 140 187 210 70 128 124 134 48 7 92 173 169 197 242 140 151 84 78 70 70 62 47 33 49 54 55 60 60 66 71 79 78 75 79 82
82 70 82 76 65 67 78 93 105 128 115 77 66 85 161 135 176 192 152 177 138 126 161 135 112 147 128 68 54 174 190 327 318 66 74 61 82 60 56 71 59 50 56 63 64 64 69 70 69 76 78 73 78 78
95 91 85 92 82 75 90 117 130 303 55 81 100 60 18 46 51 22 354 56 81 65 72 103 107 93 86 65 345 161 21 309 305 95 80 94 88 76 75 87 86 74 70 70 61 61 65 71 72 70 71 76 88 85
107 94 79 79 106 134 113 79 58 53 58 61 35 65 63 231 324 333 345 83 35 10 29 92 57 84 33 89 33 104 25 75 44 87 94 97 64 76 67 77 85 86 82 82 70 77 73 77 81 77 70 76 77 80
140 109 75 133 125 150 175 87 50 63 62 61 36 57 16 84 23 22 34 51 22 355 320 52 101 80 40 95 58 17 351 54 58 93 118 99 80 80 78 76 84 86 89 94 92 92 90 86 91 88 77 71 70 75
200 106 190 133 100 78 96 75 46 45 61 53 25 355 16 73 58 30 8 343 281 359 64 69 61 47 186 86 57 18 56 118 114 85 78 90 104 86 74 80 87 95 102 111 118 122 126 134 138 120 113 121 115 117
80 164 177 163 340 98 53 53 85 75 59 37 73 36 34 24 45 24 328 340 28 53 51 77 66 49 39 75 103 105 89 91 92 103 102 94 91 102 96 97 82 91 99 101 109 115 119 125 120 125 137 152 133 112
141 161 218 349 27 84 71 46 69 87 77 91 99 61 68 63 11 340 344 358 39 36 73 52 59 52 73 73 111 118 120 117 111 95 82 70 85 94 94 89 82 78 84 81 80 78 64 55 50 46 138 137 90 107
110 125 149 244 345 87 85 67 74 86 94 103 54 38 67 54 43 35 29 27 46 59 50 45 56 50 72 79 77 96 119 135 130 126 128 116 99 87 134 122 123 134 118 120 80 67 106 85 72 63 61 51 70 59
105 15 261 49 56 53 90 94 73 110 124 88 153 122 87 65 43 27 36 356 56 33 70 80 77 67 63 63 74 72 56 59 130 127 134 122 97 106 83 64 56 89 98 134 128 95 75 70 72 70 78 79 84 99
58 336 78 28 69 60 65 30 101 114 83 129 159 121 89 73 52 32 68 43 60 15 75 108 99 85 72 66 64 71 86 70 64 73 60 82 73 75 59 37 63 72 69 81 87 89 88 71 23 83 94 107 99 73
10 30 52 70 74 63 142 346 87 125 102 144 126 93 69 65 85 136 81 66 77 18 73 79 85 86 85 76 68 68 86 91 77 76 84 92 82 72 64 50 49 48 65 23 93 101 95 13 61 49 72 122 100 37
30 52 50 75 81 105 119 69 99 90 90 105 82 81 76 136 127 66 72 63 102 99 97 124 125 125 115 91 58 40 40 104 78 44 20 109 88 45 91 98 82 63 77 77 85 96 107 119 50 357 32 86 97 93
77 345 68 58 107 98 99 105 106 95 110 113 95 108 132 179 75 82 96 137 149 137 161 156 156 137 120 121 102 41 22 56 112 83 15 43 67 61 89 107 84 59 44 23 64 101 100 46 72 64 70 74 59 27
74 316 36 60 203 110 147 122 146 122 92 81 89 113 59 83 74 83 111 137 132 138 148 144 132 92 66 99 104 73 16 3 99 91 44 43 40 67 18 110 124 25 22 68 65 26 144 109 120 75 2 186 180 134
83 45 5 335 327 79 73 52 51 81 92 111 153 145 104 84 106 119 91 90 100 85 62 37 67 113 113 102 83 70 53 31 78 98 96 73 61 59 84 98 91 282 17 45 52 67 43 16 18 158 324 4 175 201
74 30 86 346 53 13 83 57 53 74 81 337 66 55 101 125 134 124 79 97 94 86 74 60 60 80 95 103 111 107 64 51 68 80 74 71 77 92 95 84 82 66 58 67 76 53 56 53 38 30 33 32 322 328
62 76 75 36 53 43 30 28 67 38 339 316 108 95 103 55 60 104 100 105 101 96 90 88 47 60 69 64 61 58 58 57 114 99 25 149 124 333 24 101 104 39 50 214 268 157 149 149 132 184 244 241 263 286
79 83 90 55 58 44 338 27 76 21 27 73 92 102 87 73 50 43 73 105 105 107 130 140 152 118 137 124 111 56 30 44 61 104 104 113 175 193 64 52 47 13 3 39 30 1 346 15 346 338 299 293 314 348
104 91 78 63 84 349 79 82 79 74 68 76 70 86 88 114 37 25 48 62 85 85 94 86 64 60 84 63 102 134 92 336 51 39 47 85 82 84 63 62 55 8 11 41 17 22 46 354 351 351 8 358 342 14
57 76 119 103 139 234 335 124 78 110 116 89 87 124 177 89 88 25 356 353 172 110 142 118 108 96 99 104 79 72 95 114 61 59 49 48 50 35 27 357 6 65 50 360 330 320 357 9 305 322 341 340 323 311
79 82 96 102 107 187 245 113 89 102 63 78 41 67 44 92 120 180 330 5 37 112 104 98 91 86 99 105 109 102 95 105 95 87 78 71 61 46 44 31 27 25 21 2 339 333 337 321 299 298 302 300 298 304